Home   Weather   Salem   Past weeks
Flag for USA

Past Weather in Salem, Oregon, USA — Yesterday and Last 2 Weeks

Now
57 °F

Scattered clouds.


Feels Like: 57 °F
Forecast: 56 / 43 °F
Wind: No wind

Location: McNary Field

Current Time: Mar 23, 2019 at 2:43:57 pm

Latest Report: Mar 23, 2019 at 1:56 pm


Visibility: 10 mi

Pressure: 30.17 "Hg

Humidity: 55%

Dew Point: 41 °F

Location of SalemLocation

Past Weather in Salem — Graph

°F

Salem Temperature Yesterday

Maximum temperature yesterday: 55 °F (at 3:56 pm)
Minimum temperature yesterday: 35 °F (at 7:22 am)
Average temperature yesterday: 44 °F

High & Low Weather Summary for the Past Weeks

 TemperatureHumidityPressure
High76 °F (Mar 19, 1:56 pm)97% (Mar 22, 3:17 am)30.40 "Hg (Mar 22, 3:17 am)
Low26 °F (Mar 11, 7:56 am)19% (Mar 18, 1:56 pm)29.79 "Hg (Mar 20, 1:56 pm)
Average47 °F66%30.09 "Hg
* Reported Mar 8 11:37 am — Mar 23 12:56 pm, Salem. Weather by CustomWeather, © 2019

Note: Actual official high and low records may vary slightly from our data, if they occured in-between our weather recording intervals... More about our weather records

Advertising

Salem Weather History for the Previous 24 Hours

Scroll right to see more
 ConditionsComfort  
Time TempWeatherWind HumidityBarometerVisibility
12:56 pm
Sat, Mar 23
56 °FPartly sunny.3 mph60%30.18 "Hg10 mi
11:56 am53 °FPartly sunny.5 mph74%30.18 "Hg10 mi
10:56 am52 °FMostly cloudy.8 mph80%30.18 "Hg10 mi
10:39 am52 °FPartly sunny.8 mph80%30.17 "Hg10 mi
9:56 am50 °FMore clouds than sun.5 mph86%30.17 "Hg10 mi
8:56 am46 °FLight rain. Low clouds.No wind93%30.16 "Hg10 mi
8:20 am44 °FFog.No wind93%30.15 "Hg4 mi
7:58 am43 °FFog.No wind93%30.15 "Hg1 mi
7:30 am41 °FFog.No wind93%30.14 "Hg0 mi
7:20 am41 °FFog.No wind89%30.14 "Hg0 mi
6:56 am40 °FFog.No wind93%30.14 "Hg4 mi
6:27 am41 °FFog.No wind96%30.14 "Hg1 mi
6:14 am42 °FFog.No wind96%30.14 "Hg0 mi
6:03 am42 °FFog.No wind96%30.14 "Hg1 mi
5:38 am45 °FFog.No wind90%30.13 "Hg2 mi
4:56 am46 °FPartly cloudy.5 mph93%30.12 "Hg10 mi
3:56 am47 °FOvercast.3 mph90%30.12 "Hg10 mi
2:56 am45 °FClear.3 mph97%30.12 "Hg10 mi
2:38 am46 °FPassing clouds.6 mph89%30.11 "Hg10 mi
1:56 am47 °FPassing clouds.5 mph90%30.11 "Hg10 mi
1:32 am45 °FFog.5 mph90%30.11 "Hg3 mi
12:56 am48 °FPassing clouds.3 mph89%30.11 "Hg10 mi
11:56 pm
Fri, Mar 22
48 °FOvercast.No wind93%30.10 "Hg10 mi
10:56 pm49 °FOvercast.3 mph90%30.08 "Hg10 mi
9:56 pm50 °FMostly cloudy.No wind86%30.06 "Hg10 mi
8:56 pm49 °FMostly cloudy.No wind90%30.04 "Hg10 mi
7:56 pm50 °FLight rain. Partly cloudy.No wind86%30.01 "Hg10 mi
6:56 pm50 °FLight rain. Cloudy.7 mph83%30.01 "Hg7 mi
6:28 pm52 °FLight rain. Fog.8 mph89%30.00 "Hg5 mi
5:56 pm53 °FLight rain. Fog.5 mph83%29.99 "Hg6 mi
4:56 pm55 °FBroken clouds.12 mph72%29.97 "Hg10 mi
3:56 pm55 °FMostly cloudy.8 mph74%29.97 "Hg10 mi
2:56 pm52 °FCloudy.8 mph83%29.97 "Hg10 mi
Weather by CustomWeather, © 2019

See weather overview